owner,sensor,date,latitude,longitude,air_temperature,qcFlag 
TCOON,ioos:station:TCOON:146:1,2014-11-01T02:30:00Z,28.1324,-97.0345,20.4,1111122 
TCOON,ioos:station:TCOON:146:1,2014-11-01T04:30:00Z,28.1324,-97.0345,17.1,1111122 
TCOON,ioos:station:TCOON:146:1,2014-11-01T05:30:00Z,28.1324,-97.0345,17.2,1111122 
TCOON,ioos:station:TCOON:146:1,2014-11-01T07:00:00Z,28.1324,-97.0345,16.2,1111122 
TCOON,ioos:station:TCOON:146:1,2014-11-01T07:30:00Z,28.1324,-97.0345,15.4,1111122 
TCOON,ioos:station:TCOON:146:1,2014-11-01T08:30:00Z,28.1324,-97.0345,13.8,1111122 
TCOON,ioos:station:TCOON:146:1,2014-11-01T09:30:00Z,28.1324,-97.0345,10.9,1111122 
TCOON,ioos:station:TCOON:146:1,2014-11-01T17:30:00Z,28.1324,-97.0345,0.6,1111122 
TCOON,ioos:station:TCOON:146:1,2014-11-02T02:30:00Z,28.1324,-97.0345,10.7,1111122 
TCOON,ioos:station:TCOON:146:1,2014-11-02T03:30:00Z,28.1324,-97.0345,12.0,1111122 
TCOON,ioos:station:TCOON:146:1,2014-11-02T04:30:00Z,28.1324,-97.0345,14.4,1111122 
TCOON,ioos:station:TCOON:146:1,2014-11-02T05:30:00Z,28.1324,-97.0345,16.8,1111122 
TCOON,ioos:station:TCOON:146:1,2014-11-02T06:30:00Z,28.1324,-97.0345,17.8,1111122 
TCOON,ioos:station:TCOON:146:1,2014-11-02T07:30:00Z,28.1324,-97.0345,17.4,1111122 
TCOON,ioos:station:TCOON:146:1,2014-11-02T10:30:00Z,28.1324,-97.0345,19.3,1111122 
TCOON,ioos:station:TCOON:146:1,2014-11-02T11:30:00Z,28.1324,-97.0345,19.8,1111122 
TCOON,ioos:station:TCOON:146:1,2014-11-02T12:30:00Z,28.1324,-97.0345,20.0,1111122 
TCOON,ioos:station:TCOON:146:1,2014-11-02T13:30:00Z,28.1324,-97.0345,20.1,1111122 
TCOON,ioos:station:TCOON:146:1,2014-11-02T14:30:00Z,28.1324,-97.0345,20.4,1111122 
TCOON,ioos:station:TCOON:146:1,2014-11-03T02:30:00Z,28.1324,-97.0345,21.8,1111122 
TCOON,ioos:station:TCOON:146:1,2014-11-03T03:30:00Z,28.1324,-97.0345,21.9,1111122 
TCOON,ioos:station:TCOON:146:1,2014-11-03T04:30:00Z,28.1324,-97.0345,22.2,1111122 
TCOON,ioos:station:TCOON:146:1,2014-11-03T05:30:00Z,28.1324,-97.0345,22.3,1111122 
TCOON,ioos:station:TCOON:146:1,2014-11-03T06:30:00Z,28.1324,-97.0345,22.2,1111122 
TCOON,ioos:station:TCOON:146:1,2014-11-03T11:30:00Z,28.1324,-97.0345,22.1,1111122 
TCOON,ioos:station:TCOON:146:1,2014-11-03T12:30:00Z,28.1324,-97.0345,20.9,1111122 
TCOON,ioos:station:TCOON:146:1,2014-11-03T13:30:00Z,28.1324,-97.0345,21.7,1111122 
TCOON,ioos:station:TCOON:146:1,2014-11-03T14:30:00Z,28.1324,-97.0345,19.3,1111122 
TCOON,ioos:station:TCOON:146:1,2014-11-03T16:30:00Z,28.1324,-97.0345,20.9,1111122 
TCOON,ioos:station:TCOON:146:1,2014-11-03T18:30:00Z,28.1324,-97.0345,21.2,1111122 
TCOON,ioos:station:TCOON:146:1,2014-11-03T21:30:00Z,28.1324,-97.0345,22.7,1111122 
TCOON,ioos:station:TCOON:146:1,2014-11-03T23:00:00Z,28.1324,-97.0345,19.8,1111122 
TCOON,ioos:station:TCOON:146:1,2014-11-07T15:00:00Z,28.1324,-97.0345,0.2,1111122 
TCOON,ioos:station:TCOON:146:1,2014-11-07T17:30:00Z,28.1324,-97.0345,2.4,1111122 
TCOON,ioos:station:TCOON:146:1,2014-11-07T18:30:00Z,28.1324,-97.0345,4.7,1111122 
TCOON,ioos:station:TCOON:146:1,2014-11-07T21:30:00Z,28.1324,-97.0345,8.2,1111122 
TCOON,ioos:station:TCOON:146:1,2014-11-07T22:30:00Z,28.1324,-97.0345,8.2,1111122 
TCOON,ioos:station:TCOON:146:1,2014-11-07T23:30:00Z,28.1324,-97.0345,8.4,1111122 
TCOON,ioos:station:TCOON:146:1,2014-11-08T01:30:00Z,28.1324,-97.0345,9.0,1111122 
TCOON,ioos:station:TCOON:146:1,2014-11-08T02:30:00Z,28.1324,-97.0345,9.7,1111122 
TCOON,ioos:station:TCOON:146:1,2014-11-08T03:30:00Z,28.1324,-97.0345,8.9,1111122 
TCOON,ioos:station:TCOON:146:1,2014-11-08T04:30:00Z,28.1324,-97.0345,9.9,1111122 
TCOON,ioos:station:TCOON:146:1,2014-11-08T05:30:00Z,28.1324,-97.0345,9.9,1111122 
TCOON,ioos:station:TCOON:146:1,2014-11-08T06:30:00Z,28.1324,-97.0345,12.8,1111122 
TCOON,ioos:station:TCOON:146:1,2014-11-08T08:30:00Z,28.1324,-97.0345,11.4,1111122 
TCOON,ioos:station:TCOON:146:1,2014-11-08T10:30:00Z,28.1324,-97.0345,11.7,1111122 
TCOON,ioos:station:TCOON:146:1,2014-11-08T11:30:00Z,28.1324,-97.0345,12.5,1111122 
TCOON,ioos:station:TCOON:146:1,2014-11-08T13:30:00Z,28.1324,-97.0345,10.4,1111122 
TCOON,ioos:station:TCOON:146:1,2014-11-08T14:30:00Z,28.1324,-97.0345,10.1,1111122 
TCOON,ioos:station:TCOON:146:1,2014-11-08T16:30:00Z,28.1324,-97.0345,17.2,1111122 
TCOON,ioos:station:TCOON:146:1,2014-11-08T18:30:00Z,28.1324,-97.0345,18.6,1111122 
TCOON,ioos:station:TCOON:146:1,2014-11-08T19:30:00Z,28.1324,-97.0345,18.6,1111122 
TCOON,ioos:station:TCOON:146:1,2014-11-09T02:30:00Z,28.1324,-97.0345,12.8,1111122 
TCOON,ioos:station:TCOON:146:1,2014-11-09T03:30:00Z,28.1324,-97.0345,13.2,1111122 
TCOON,ioos:station:TCOON:146:1,2014-11-09T04:30:00Z,28.1324,-97.0345,9.1,1111122 
TCOON,ioos:station:TCOON:146:1,2014-11-09T05:30:00Z,28.1324,-97.0345,8.8,1111122 
TCOON,ioos:station:TCOON:146:1,2014-11-09T06:30:00Z,28.1324,-97.0345,8.9,1111122 
TCOON,ioos:station:TCOON:146:1,2014-11-09T08:30:00Z,28.1324,-97.0345,7.2,1111122 
TCOON,ioos:station:TCOON:146:1,2014-11-09T10:30:00Z,28.1324,-97.0345,8.4,1111122 
TCOON,ioos:station:TCOON:146:1,2014-11-09T12:30:00Z,28.1324,-97.0345,7.6,1111122 
TCOON,ioos:station:TCOON:146:1,2014-11-09T13:30:00Z,28.1324,-97.0345,6.3,1111122 
TCOON,ioos:station:TCOON:146:1,2014-11-09T15:30:00Z,28.1324,-97.0345,6.2,1111122 
TCOON,ioos:station:TCOON:146:1,2014-11-09T17:30:00Z,28.1324,-97.0345,14.9,1111122 
TCOON,ioos:station:TCOON:146:1,2014-11-09T22:30:00Z,28.1324,-97.0345,20.9,1111122 
TCOON,ioos:station:TCOON:146:1,2014-11-10T00:30:00Z,28.1324,-97.0345,18.9,1111122 
TCOON,ioos:station:TCOON:146:1,2014-11-10T01:30:00Z,28.1324,-97.0345,18.7,1111122 
TCOON,ioos:station:TCOON:146:1,2014-11-10T03:30:00Z,28.1324,-97.0345,17.4,1111122 
TCOON,ioos:station:TCOON:146:1,2014-11-10T04:30:00Z,28.1324,-97.0345,17.3,1111122 
TCOON,ioos:station:TCOON:146:1,2014-11-10T05:30:00Z,28.1324,-97.0345,16.5,1111122 
TCOON,ioos:station:TCOON:146:1,2014-11-10T09:30:00Z,28.1324,-97.0345,9.3,1111122 
TCOON,ioos:station:TCOON:146:1,2014-11-10T10:30:00Z,28.1324,-97.0345,12.0,1111122 
TCOON,ioos:station:TCOON:146:1,2014-11-10T11:30:00Z,28.1324,-97.0345,13.3,1111122 
TCOON,ioos:station:TCOON:146:1,2014-11-10T12:30:00Z,28.1324,-97.0345,14.9,1111122 
TCOON,ioos:station:TCOON:146:1,2014-11-10T13:30:00Z,28.1324,-97.0345,14.1,1111122 
TCOON,ioos:station:TCOON:146:1,2014-11-10T14:30:00Z,28.1324,-97.0345,10.6,1111122 
TCOON,ioos:station:TCOON:146:1,2014-11-10T17:30:00Z,28.1324,-97.0345,16.7,1111122 
TCOON,ioos:station:TCOON:146:1,2014-11-10T18:30:00Z,28.1324,-97.0345,15.9,1111122 
TCOON,ioos:station:TCOON:146:1,2014-11-10T20:30:00Z,28.1324,-97.0345,12.2,1111122 
TCOON,ioos:station:TCOON:146:1,2014-11-10T21:30:00Z,28.1324,-97.0345,10.7,1111122 
TCOON,ioos:station:TCOON:146:1,2014-11-10T22:30:00Z,28.1324,-97.0345,16.8,1111122 
TCOON,ioos:station:TCOON:146:1,2014-11-11T00:30:00Z,28.1324,-97.0345,15.9,1111122 
TCOON,ioos:station:TCOON:146:1,2014-11-11T02:30:00Z,28.1324,-97.0345,14.4,1111122 
TCOON,ioos:station:TCOON:146:1,2014-11-11T03:30:00Z,28.1324,-97.0345,12.1,1111122 
TCOON,ioos:station:TCOON:146:1,2014-11-11T04:30:00Z,28.1324,-97.0345,11.2,1111122 
TCOON,ioos:station:TCOON:146:1,2014-11-11T05:30:00Z,28.1324,-97.0345,8.7,1111122 
TCOON,ioos:station:TCOON:146:1,2014-11-11T06:30:00Z,28.1324,-97.0345,7.3,1111122 
TCOON,ioos:station:TCOON:146:1,2014-11-11T07:30:00Z,28.1324,-97.0345,5.3,1111122 
TCOON,ioos:station:TCOON:146:1,2014-11-11T08:30:00Z,28.1324,-97.0345,2.6,1111122 
TCOON,ioos:station:TCOON:146:1,2014-11-11T09:30:00Z,28.1324,-97.0345,2.2,1111122 
TCOON,ioos:station:TCOON:146:1,2014-11-11T23:00:00Z,28.1324,-97.0345,0.3,1111122 
TCOON,ioos:station:TCOON:146:1,2014-11-12T00:30:00Z,28.1324,-97.0345,1.7,1111122 
TCOON,ioos:station:TCOON:146:1,2014-11-12T01:30:00Z,28.1324,-97.0345,2.6,1111122 
TCOON,ioos:station:TCOON:146:1,2014-11-12T02:30:00Z,28.1324,-97.0345,3.4,1111122 
TCOON,ioos:station:TCOON:146:1,2014-11-12T03:30:00Z,28.1324,-97.0345,4.4,1111122 
TCOON,ioos:station:TCOON:146:1,2014-11-13T02:30:00Z,28.1324,-97.0345,7.8,1111122 
TCOON,ioos:station:TCOON:146:1,2014-11-13T03:30:00Z,28.1324,-97.0345,4.4,1111122 
TCOON,ioos:station:TCOON:146:1,2014-11-13T12:30:00Z,28.1324,-97.0345,1.3,1111122 
TCOON,ioos:station:TCOON:146:1,2014-11-13T15:30:00Z,28.1324,-97.0345,7.9,1111122 
TCOON,ioos:station:TCOON:146:1,2014-11-13T17:30:00Z,28.1324,-97.0345,4.7,1111122 
TCOON,ioos:station:TCOON:146:1,2014-11-13T18:30:00Z,28.1324,-97.0345,4.9,1111122 
TCOON,ioos:station:TCOON:146:1,2014-11-13T20:30:00Z,28.1324,-97.0345,6.5,1111122 
TCOON,ioos:station:TCOON:146:1,2014-11-13T22:30:00Z,28.1324,-97.0345,6.9,1111122 
TCOON,ioos:station:TCOON:146:1,2014-11-14T02:30:00Z,28.1324,-97.0345,5.5,1111122 
TCOON,ioos:station:TCOON:146:1,2014-11-14T03:30:00Z,28.1324,-97.0345,5.6,1111122 
TCOON,ioos:station:TCOON:146:1,2014-11-14T04:30:00Z,28.1324,-97.0345,5.6,1111122 
TCOON,ioos:station:TCOON:146:1,2014-11-14T06:30:00Z,28.1324,-97.0345,4.8,1111122 
TCOON,ioos:station:TCOON:146:1,2014-11-14T08:30:00Z,28.1324,-97.0345,4.3,1111122 
TCOON,ioos:station:TCOON:146:1,2014-11-14T11:30:00Z,28.1324,-97.0345,3.6,1111122 
TCOON,ioos:station:TCOON:146:1,2014-11-14T12:30:00Z,28.1324,-97.0345,3.7,1111122 
TCOON,ioos:station:TCOON:146:1,2014-11-14T13:30:00Z,28.1324,-97.0345,3.5,1111122 
TCOON,ioos:station:TCOON:146:1,2014-11-14T14:30:00Z,28.1324,-97.0345,3.8,1111122 
TCOON,ioos:station:TCOON:146:1,2014-11-14T15:30:00Z,28.1324,-97.0345,3.9,1111122 
TCOON,ioos:station:TCOON:146:1,2014-11-14T17:30:00Z,28.1324,-97.0345,5.2,1111122 
TCOON,ioos:station:TCOON:146:1,2014-11-14T20:30:00Z,28.1324,-97.0345,7.0,1111122 
TCOON,ioos:station:TCOON:146:1,2014-11-14T21:30:00Z,28.1324,-97.0345,7.2,1111122 
TCOON,ioos:station:TCOON:146:1,2014-11-14T22:30:00Z,28.1324,-97.0345,7.3,1111122 
TCOON,ioos:station:TCOON:146:1,2014-11-15T00:30:00Z,28.1324,-97.0345,7.2,1111122 
TCOON,ioos:station:TCOON:146:1,2014-11-15T01:30:00Z,28.1324,-97.0345,7.3,1111122 
TCOON,ioos:station:TCOON:146:1,2014-11-15T02:30:00Z,28.1324,-97.0345,7.6,1111122 
TCOON,ioos:station:TCOON:146:1,2014-11-15T03:30:00Z,28.1324,-97.0345,7.7,1111122 
TCOON,ioos:station:TCOON:146:1,2014-11-15T04:30:00Z,28.1324,-97.0345,7.7,1111122 
TCOON,ioos:station:TCOON:146:1,2014-11-15T05:30:00Z,28.1324,-97.0345,7.8,1111122 
TCOON,ioos:station:TCOON:146:1,2014-11-15T06:30:00Z,28.1324,-97.0345,7.8,1111122 
TCOON,ioos:station:TCOON:146:1,2014-11-15T07:30:00Z,28.1324,-97.0345,7.6,1111122 
TCOON,ioos:station:TCOON:146:1,2014-11-15T08:30:00Z,28.1324,-97.0345,7.5,1111122 
TCOON,ioos:station:TCOON:146:1,2014-11-15T11:30:00Z,28.1324,-97.0345,7.4,1111122 
TCOON,ioos:station:TCOON:146:1,2014-11-15T12:30:00Z,28.1324,-97.0345,7.0,1111122 
TCOON,ioos:station:TCOON:146:1,2014-11-15T13:30:00Z,28.1324,-97.0345,6.1,1111122 
TCOON,ioos:station:TCOON:146:1,2014-11-15T15:30:00Z,28.1324,-97.0345,11.4,1111122 
TCOON,ioos:station:TCOON:146:1,2014-11-15T16:30:00Z,28.1324,-97.0345,6.2,1111122 
TCOON,ioos:station:TCOON:146:1,2014-11-15T19:30:00Z,28.1324,-97.0345,5.7,1111122 
TCOON,ioos:station:TCOON:146:1,2014-11-15T21:30:00Z,28.1324,-97.0345,12.3,1111122 
TCOON,ioos:station:TCOON:146:1,2014-11-15T22:30:00Z,28.1324,-97.0345,14.7,1111122 
TCOON,ioos:station:TCOON:146:1,2014-11-16T02:30:00Z,28.1324,-97.0345,16.0,1111122 
TCOON,ioos:station:TCOON:146:1,2014-11-16T03:30:00Z,28.1324,-97.0345,18.7,1111122 
TCOON,ioos:station:TCOON:146:1,2014-11-16T04:30:00Z,28.1324,-97.0345,21.0,1111122 
TCOON,ioos:station:TCOON:146:1,2014-11-16T07:00:00Z,28.1324,-97.0345,19.5,1111122 
TCOON,ioos:station:TCOON:146:1,2014-11-16T07:30:00Z,28.1324,-97.0345,33.2,1111122 
TCOON,ioos:station:TCOON:146:1,2014-11-16T08:30:00Z,28.1324,-97.0345,16.3,1111122 
TCOON,ioos:station:TCOON:146:1,2014-11-16T11:00:00Z,28.1324,-97.0345,8.1,1111122 
TCOON,ioos:station:TCOON:146:1,2014-11-16T17:00:00Z,28.1324,-97.0345,43.4,1111122 
TCOON,ioos:station:TCOON:146:1,2014-11-17T01:30:00Z,28.1324,-97.0345,12.6,1111122 
TCOON,ioos:station:TCOON:146:1,2014-11-17T02:30:00Z,28.1324,-97.0345,21.5,1111122 
TCOON,ioos:station:TCOON:146:1,2014-11-17T03:30:00Z,28.1324,-97.0345,28.6,1111122 
TCOON,ioos:station:TCOON:146:1,2014-11-17T05:30:00Z,28.1324,-97.0345,32.7,1111122 
TCOON,ioos:station:TCOON:146:1,2014-11-17T08:30:00Z,28.1324,-97.0345,34.8,1111122 
TCOON,ioos:station:TCOON:146:1,2014-11-17T09:30:00Z,28.1324,-97.0345,34.4,1111122 
TCOON,ioos:station:TCOON:146:1,2014-11-17T11:30:00Z,28.1324,-97.0345,32.4,1111122 
TCOON,ioos:station:TCOON:146:1,2014-11-17T12:30:00Z,28.1324,-97.0345,31.3,1111122 
TCOON,ioos:station:TCOON:146:1,2014-11-17T14:30:00Z,28.1324,-97.0345,2.8,1111122 
TCOON,ioos:station:TCOON:146:1,2014-11-17T15:30:00Z,28.1324,-97.0345,3.8,1111122 
TCOON,ioos:station:TCOON:146:1,2014-11-17T16:30:00Z,28.1324,-97.0345,4.9,1111122 
TCOON,ioos:station:TCOON:146:1,2014-11-17T17:30:00Z,28.1324,-97.0345,5.7,1111122 
TCOON,ioos:station:TCOON:146:1,2014-11-17T18:30:00Z,28.1324,-97.0345,7.1,1111122 
TCOON,ioos:station:TCOON:146:1,2014-11-17T19:30:00Z,28.1324,-97.0345,8.0,1111122 
TCOON,ioos:station:TCOON:146:1,2014-11-17T20:30:00Z,28.1324,-97.0345,9.0,1111122 
TCOON,ioos:station:TCOON:146:1,2014-11-17T21:30:00Z,28.1324,-97.0345,9.5,1111122 
TCOON,ioos:station:TCOON:146:1,2014-11-17T23:00:00Z,28.1324,-97.0345,9.9,1111122 
TCOON,ioos:station:TCOON:146:1,2014-11-17T23:30:00Z,28.1324,-97.0345,9.7,1111122 
TCOON,ioos:station:TCOON:146:1,2014-11-18T00:30:00Z,28.1324,-97.0345,8.8,1111122 
TCOON,ioos:station:TCOON:146:1,2014-11-18T02:00:00Z,28.1324,-97.0345,7.9,1111122 
TCOON,ioos:station:TCOON:146:1,2014-11-18T02:30:00Z,28.1324,-97.0345,7.5,1111122 
TCOON,ioos:station:TCOON:146:1,2014-11-18T03:30:00Z,28.1324,-97.0345,7.2,1111122 
TCOON,ioos:station:TCOON:146:1,2014-11-18T04:30:00Z,28.1324,-97.0345,6.4,1111122 
TCOON,ioos:station:TCOON:146:1,2014-11-18T05:30:00Z,28.1324,-97.0345,5.5,1111122 
TCOON,ioos:station:TCOON:146:1,2014-11-18T08:30:00Z,28.1324,-97.0345,3.4,1111122 
TCOON,ioos:station:TCOON:146:1,2014-11-18T09:30:00Z,28.1324,-97.0345,3.3,1111122 
TCOON,ioos:station:TCOON:146:1,2014-11-18T10:30:00Z,28.1324,-97.0345,3.6,1111122 
TCOON,ioos:station:TCOON:146:1,2014-11-18T11:30:00Z,28.1324,-97.0345,3.6,1111122 
TCOON,ioos:station:TCOON:146:1,2014-11-18T12:30:00Z,28.1324,-97.0345,4.0,1111122 
TCOON,ioos:station:TCOON:146:1,2014-11-18T13:30:00Z,28.1324,-97.0345,4.8,1111122 
TCOON,ioos:station:TCOON:146:1,2014-11-18T14:30:00Z,28.1324,-97.0345,5.6,1111122 
TCOON,ioos:station:TCOON:146:1,2014-11-18T16:30:00Z,28.1324,-97.0345,6.9,1111122 
TCOON,ioos:station:TCOON:146:1,2014-11-18T17:30:00Z,28.1324,-97.0345,7.9,1111122 
TCOON,ioos:station:TCOON:146:1,2014-11-18T19:30:00Z,28.1324,-97.0345,9.8,1111122 
TCOON,ioos:station:TCOON:146:1,2014-11-18T21:30:00Z,28.1324,-97.0345,10.1,1111122 
TCOON,ioos:station:TCOON:146:1,2014-11-18T22:30:00Z,28.1324,-97.0345,10.0,1111122 
TCOON,ioos:station:TCOON:146:1,2014-11-18T23:30:00Z,28.1324,-97.0345,9.6,1111122 
TCOON,ioos:station:TCOON:146:1,2014-11-19T00:30:00Z,28.1324,-97.0345,8.7,1111122 
TCOON,ioos:station:TCOON:146:1,2014-11-19T02:30:00Z,28.1324,-97.0345,8.1,1111122 
TCOON,ioos:station:TCOON:146:1,2014-11-19T03:30:00Z,28.1324,-97.0345,8.0,1111122 
TCOON,ioos:station:TCOON:146:1,2014-11-19T04:30:00Z,28.1324,-97.0345,7.8,1111122 
TCOON,ioos:station:TCOON:146:1,2014-11-19T05:30:00Z,28.1324,-97.0345,7.7,1111122 
TCOON,ioos:station:TCOON:146:1,2014-11-19T06:30:00Z,28.1324,-97.0345,7.7,1111122 
TCOON,ioos:station:TCOON:146:1,2014-11-19T08:30:00Z,28.1324,-97.0345,7.7,1111122 
TCOON,ioos:station:TCOON:146:1,2014-11-19T10:30:00Z,28.1324,-97.0345,6.9,1111122 
TCOON,ioos:station:TCOON:146:1,2014-11-19T11:30:00Z,28.1324,-97.0345,6.9,1111122 
TCOON,ioos:station:TCOON:146:1,2014-11-19T12:30:00Z,28.1324,-97.0345,6.7,1111122 
TCOON,ioos:station:TCOON:146:1,2014-11-19T14:30:00Z,28.1324,-97.0345,7.4,1111122 
TCOON,ioos:station:TCOON:146:1,2014-11-19T15:30:00Z,28.1324,-97.0345,8.6,1111122 
TCOON,ioos:station:TCOON:146:1,2014-11-19T17:30:00Z,28.1324,-97.0345,12.0,1111122 
TCOON,ioos:station:TCOON:146:1,2014-11-19T18:30:00Z,28.1324,-97.0345,16.2,1111122 
TCOON,ioos:station:TCOON:146:1,2014-11-19T21:30:00Z,28.1324,-97.0345,17.8,1111122 
TCOON,ioos:station:TCOON:146:1,2014-11-19T22:30:00Z,28.1324,-97.0345,18.0,1111122 
TCOON,ioos:station:TCOON:146:1,2014-11-20T01:30:00Z,28.1324,-97.0345,15.2,1111122 
TCOON,ioos:station:TCOON:146:1,2014-11-20T02:30:00Z,28.1324,-97.0345,14.3,1111122 
TCOON,ioos:station:TCOON:146:1,2014-11-20T03:30:00Z,28.1324,-97.0345,14.6,1111122 
TCOON,ioos:station:TCOON:146:1,2014-11-20T04:30:00Z,28.1324,-97.0345,14.8,1111122 
TCOON,ioos:station:TCOON:146:1,2014-11-20T05:30:00Z,28.1324,-97.0345,14.4,1111122 
TCOON,ioos:station:TCOON:146:1,2014-11-20T06:30:00Z,28.1324,-97.0345,14.7,1111122 
TCOON,ioos:station:TCOON:146:1,2014-11-20T08:30:00Z,28.1324,-97.0345,13.5,1111122 
TCOON,ioos:station:TCOON:146:1,2014-11-20T09:30:00Z,28.1324,-97.0345,12.8,1111122 
TCOON,ioos:station:TCOON:146:1,2014-11-20T10:30:00Z,28.1324,-97.0345,13.7,1111122 
TCOON,ioos:station:TCOON:146:1,2014-11-20T11:30:00Z,28.1324,-97.0345,13.1,1111122 
TCOON,ioos:station:TCOON:146:1,2014-11-20T12:30:00Z,28.1324,-97.0345,13.4,1111122 
TCOON,ioos:station:TCOON:146:1,2014-11-20T13:30:00Z,28.1324,-97.0345,13.6,1111122 
TCOON,ioos:station:TCOON:146:1,2014-11-20T14:30:00Z,28.1324,-97.0345,14.3,1111122 
TCOON,ioos:station:TCOON:146:1,2014-11-20T15:30:00Z,28.1324,-97.0345,15.8,1111122 
TCOON,ioos:station:TCOON:146:1,2014-11-20T16:30:00Z,28.1324,-97.0345,17.9,1111122 
TCOON,ioos:station:TCOON:146:1,2014-11-20T19:30:00Z,28.1324,-97.0345,17.3,1111122 
TCOON,ioos:station:TCOON:146:1,2014-11-20T20:30:00Z,28.1324,-97.0345,17.8,1111122 
TCOON,ioos:station:TCOON:146:1,2014-11-20T21:30:00Z,28.1324,-97.0345,16.9,1111122 
TCOON,ioos:station:TCOON:146:1,2014-11-20T22:30:00Z,28.1324,-97.0345,18.3,1111122 
TCOON,ioos:station:TCOON:146:1,2014-11-20T23:30:00Z,28.1324,-97.0345,17.9,1111122 
TCOON,ioos:station:TCOON:146:1,2014-11-21T01:30:00Z,28.1324,-97.0345,18.0,1111122 
TCOON,ioos:station:TCOON:146:1,2014-11-21T02:30:00Z,28.1324,-97.0345,18.3,1111122 
TCOON,ioos:station:TCOON:146:1,2014-11-21T03:30:00Z,28.1324,-97.0345,18.0,1111122 
TCOON,ioos:station:TCOON:146:1,2014-11-21T04:30:00Z,28.1324,-97.0345,18.1,1111122 
TCOON,ioos:station:TCOON:146:1,2014-11-21T05:30:00Z,28.1324,-97.0345,18.3,1111122 
TCOON,ioos:station:TCOON:146:1,2014-11-21T06:30:00Z,28.1324,-97.0345,17.7,1111122 
TCOON,ioos:station:TCOON:146:1,2014-11-21T07:30:00Z,28.1324,-97.0345,17.1,1111122 
TCOON,ioos:station:TCOON:146:1,2014-11-21T08:30:00Z,28.1324,-97.0345,18.3,1111122 
TCOON,ioos:station:TCOON:146:1,2014-11-21T09:30:00Z,28.1324,-97.0345,17.0,1111122 
TCOON,ioos:station:TCOON:146:1,2014-11-21T10:30:00Z,28.1324,-97.0345,17.5,1111122 
TCOON,ioos:station:TCOON:146:1,2014-11-21T11:30:00Z,28.1324,-97.0345,18.6,1111122 
TCOON,ioos:station:TCOON:146:1,2014-11-21T12:30:00Z,28.1324,-97.0345,19.2,1111122 
TCOON,ioos:station:TCOON:146:1,2014-11-21T13:30:00Z,28.1324,-97.0345,16.9,1111122 
TCOON,ioos:station:TCOON:146:1,2014-11-21T14:30:00Z,28.1324,-97.0345,17.4,1111122 
TCOON,ioos:station:TCOON:146:1,2014-11-21T15:30:00Z,28.1324,-97.0345,19.0,1111122 
TCOON,ioos:station:TCOON:146:1,2014-11-21T16:30:00Z,28.1324,-97.0345,20.0,1111122 
TCOON,ioos:station:TCOON:146:1,2014-11-21T17:30:00Z,28.1324,-97.0345,19.9,1111122 
TCOON,ioos:station:TCOON:146:1,2014-11-21T20:30:00Z,28.1324,-97.0345,19.4,1111122 
TCOON,ioos:station:TCOON:146:1,2014-11-21T21:30:00Z,28.1324,-97.0345,19.1,1111122 
TCOON,ioos:station:TCOON:146:1,2014-11-21T22:30:00Z,28.1324,-97.0345,19.0,1111122 
TCOON,ioos:station:TCOON:146:1,2014-11-22T00:30:00Z,28.1324,-97.0345,19.0,1111122 
TCOON,ioos:station:TCOON:146:1,2014-11-22T01:30:00Z,28.1324,-97.0345,18.7,1111122 
TCOON,ioos:station:TCOON:146:1,2014-11-22T02:30:00Z,28.1324,-97.0345,18.2,1111122 
TCOON,ioos:station:TCOON:146:1,2014-11-22T03:30:00Z,28.1324,-97.0345,18.2,1111122 
TCOON,ioos:station:TCOON:146:1,2014-11-22T04:30:00Z,28.1324,-97.0345,18.6,1111122 
TCOON,ioos:station:TCOON:146:1,2014-11-22T05:30:00Z,28.1324,-97.0345,18.3,1111122 
TCOON,ioos:station:TCOON:146:1,2014-11-22T06:30:00Z,28.1324,-97.0345,18.5,1111122 
TCOON,ioos:station:TCOON:146:1,2014-11-22T07:30:00Z,28.1324,-97.0345,18.5,1111122 
TCOON,ioos:station:TCOON:146:1,2014-11-22T08:30:00Z,28.1324,-97.0345,18.8,1111122 
TCOON,ioos:station:TCOON:146:1,2014-11-22T09:30:00Z,28.1324,-97.0345,18.6,1111122 
TCOON,ioos:station:TCOON:146:1,2014-11-22T10:30:00Z,28.1324,-97.0345,18.7,1111122 
TCOON,ioos:station:TCOON:146:1,2014-11-22T11:30:00Z,28.1324,-97.0345,18.4,1111122 
TCOON,ioos:station:TCOON:146:1,2014-11-22T12:30:00Z,28.1324,-97.0345,18.8,1111122 
TCOON,ioos:station:TCOON:146:1,2014-11-22T14:30:00Z,28.1324,-97.0345,20.1,1111122 
TCOON,ioos:station:TCOON:146:1,2014-11-22T16:30:00Z,28.1324,-97.0345,19.4,1111122 
TCOON,ioos:station:TCOON:146:1,2014-11-22T17:30:00Z,28.1324,-97.0345,19.1,1111122 
TCOON,ioos:station:TCOON:146:1,2014-11-22T18:30:00Z,28.1324,-97.0345,19.3,1111122 
TCOON,ioos:station:TCOON:146:1,2014-11-22T19:30:00Z,28.1324,-97.0345,19.5,1111122 
TCOON,ioos:station:TCOON:146:1,2014-11-22T21:30:00Z,28.1324,-97.0345,18.9,1111122 
TCOON,ioos:station:TCOON:146:1,2014-11-22T22:30:00Z,28.1324,-97.0345,19.2,1111122 
TCOON,ioos:station:TCOON:146:1,2014-11-22T23:30:00Z,28.1324,-97.0345,19.3,1111122 
TCOON,ioos:station:TCOON:146:1,2014-11-23T00:30:00Z,28.1324,-97.0345,20.2,1111122 
TCOON,ioos:station:TCOON:146:1,2014-11-23T01:30:00Z,28.1324,-97.0345,19.2,1111122 
TCOON,ioos:station:TCOON:146:1,2014-11-23T02:30:00Z,28.1324,-97.0345,18.5,1111122 
TCOON,ioos:station:TCOON:146:1,2014-11-23T03:30:00Z,28.1324,-97.0345,18.1,1111122 
TCOON,ioos:station:TCOON:146:1,2014-11-23T04:30:00Z,28.1324,-97.0345,17.4,1111122 
TCOON,ioos:station:TCOON:146:1,2014-11-23T05:30:00Z,28.1324,-97.0345,17.1,1111122 
TCOON,ioos:station:TCOON:146:1,2014-11-23T07:30:00Z,28.1324,-97.0345,16.5,1111122 
TCOON,ioos:station:TCOON:146:1,2014-11-23T08:30:00Z,28.1324,-97.0345,16.8,1111122 
TCOON,ioos:station:TCOON:146:1,2014-11-23T09:30:00Z,28.1324,-97.0345,16.6,1111122 
TCOON,ioos:station:TCOON:146:1,2014-11-23T10:30:00Z,28.1324,-97.0345,16.3,1111122 
TCOON,ioos:station:TCOON:146:1,2014-11-23T11:30:00Z,28.1324,-97.0345,15.8,1111122 
TCOON,ioos:station:TCOON:146:1,2014-11-23T12:30:00Z,28.1324,-97.0345,15.6,1111122 
TCOON,ioos:station:TCOON:146:1,2014-11-23T13:30:00Z,28.1324,-97.0345,15.8,1111122 
TCOON,ioos:station:TCOON:146:1,2014-11-23T14:30:00Z,28.1324,-97.0345,15.8,1111122 
TCOON,ioos:station:TCOON:146:1,2014-11-23T15:30:00Z,28.1324,-97.0345,15.4,1111122 
TCOON,ioos:station:TCOON:146:1,2014-11-23T16:30:00Z,28.1324,-97.0345,16.7,1111122 
TCOON,ioos:station:TCOON:146:1,2014-11-23T17:30:00Z,28.1324,-97.0345,18.3,1111122 
TCOON,ioos:station:TCOON:146:1,2014-11-23T18:30:00Z,28.1324,-97.0345,19.4,1111122 
TCOON,ioos:station:TCOON:146:1,2014-11-23T22:30:00Z,28.1324,-97.0345,22.1,1111122 
TCOON,ioos:station:TCOON:146:1,2014-11-24T01:30:00Z,28.1324,-97.0345,20.7,1111122 
TCOON,ioos:station:TCOON:146:1,2014-11-24T02:30:00Z,28.1324,-97.0345,21.0,1111122 
TCOON,ioos:station:TCOON:146:1,2014-11-24T03:30:00Z,28.1324,-97.0345,20.6,1111122 
TCOON,ioos:station:TCOON:146:1,2014-11-24T04:30:00Z,28.1324,-97.0345,19.8,1111122 
TCOON,ioos:station:TCOON:146:1,2014-11-24T05:30:00Z,28.1324,-97.0345,17.9,1111122 
TCOON,ioos:station:TCOON:146:1,2014-11-24T06:30:00Z,28.1324,-97.0345,17.6,1111122 
TCOON,ioos:station:TCOON:146:1,2014-11-24T07:30:00Z,28.1324,-97.0345,17.2,1111122 
TCOON,ioos:station:TCOON:146:1,2014-11-24T08:30:00Z,28.1324,-97.0345,16.6,1111122 
TCOON,ioos:station:TCOON:146:1,2014-11-24T09:30:00Z,28.1324,-97.0345,15.5,1111122 
TCOON,ioos:station:TCOON:146:1,2014-11-24T10:30:00Z,28.1324,-97.0345,14.5,1111122 
TCOON,ioos:station:TCOON:146:1,2014-11-24T11:30:00Z,28.1324,-97.0345,13.4,1111122 
TCOON,ioos:station:TCOON:146:1,2014-11-24T12:30:00Z,28.1324,-97.0345,12.8,1111122 
TCOON,ioos:station:TCOON:146:1,2014-11-24T13:30:00Z,28.1324,-97.0345,12.2,1111122 
TCOON,ioos:station:TCOON:146:1,2014-11-24T14:30:00Z,28.1324,-97.0345,12.0,1111122 
TCOON,ioos:station:TCOON:146:1,2014-11-24T15:30:00Z,28.1324,-97.0345,13.4,1111122 